カタログに戻る

OPS 0252

運用中軍事LEO
NORAD 13791·PAYLOAD·🇺🇸 United States

打ち上げ Feb 9, 1983 から Vandenberg Space Force Base

Loading…

次のパス (今後24時間)

TLE

最新Source: Space-Track

元期: Sep 14, 2026, 15:35 UTC

1 13791U 83008A   26257.64950850  .00003728  00000-0  50273-3 0  9999
2 13791  63.3113  40.4750 0669462 138.0549 227.3831 13.87752093118701

AllMySatでOPS 0252をリアルタイム追跡

Download on the App Store